This demonstration page uses our WeatherBlox Daily Observations layout. Learn more.

40.92945, -100.16068

Hourly Observations for May 10, 2018

Temp ( °F °C ) Dew Point ( °F °C ) Humidity (%) Winds ( mph kmh ) Pressure ( in mb ) Visibility ( mi km ) Precip ( " mm )
12:35 am 00:35 Clear 56 13.4 45 7.4 67 67 NE 5 7 29.94 1014 10 16.0934 0 0
1:15 am 01:15 Clear 56 13.5 47 8.2 71 71 ENE 5 7 29.94 1014 10 16.0934 0 0
1:35 am 01:35 Clear 56 13.1 45 7.2 68 68 NE 3 6 29.94 1014 10 16.0934 0 0
1:55 am 01:55 Clear 55 12.5 45 7.2 70 70 NE 6 9 29.97 1015 10 16.0934 0 0
2:15 am 02:15 Clear 53 11.8 45 7.4 75 75 NE 6 9 29.97 1015 10 16.0934 0 0
2:35 am 02:35 Clear 54 12.1 45 7.2 72 72 ENE 7 11 29.94 1014 10 16.0934 0 0
2:55 am 02:55 Clear 53 11.5 46 7.5 77 77 ENE 7 11 29.94 1014 10 16.0934 0 0
3:15 am 03:15 Clear 53 11.9 46 7.6 75 75 ENE 5 7 29.94 1014 10 16.0934 0 0
3:35 am 03:35 Clear 54 12.2 46 7.5 73 73 Calm 29.94 1014 10 16.0934 0 0
3:55 am 03:55 Clear 55 12.9 46 7.5 70 70 Calm 29.94 1014 10 16.0934 0 0
4:15 am 04:15 Clear 55 12.6 46 7.5 71 71 Calm 29.97 1015 10 16.0934 0 0
4:35 am 04:35 Clear 52 11 44 6.8 76 76 Calm 29.97 1015 10 16.0934 0 0
4:55 am 04:55 Clear 50 10 44 6.9 81 81 Calm 29.97 1015 10 16.0934 0 0
5:15 am 05:15 Clear 50 10 44 6.8 81 81 Calm 29.97 1015 10 16.0934 0 0
5:35 am 05:35 Clear 49 9.4 44 6.7 83 83 Calm 30 1016 10 16.0934 0 0
5:55 am 05:55 Clear 49 9.2 44 6.5 83 83 Calm 30 1016 10 16.0934 0 0
6:15 am 06:15 Clear 49 9.2 44 6.7 85 85 Calm 30 1016 10 16.0934 0 0
6:35 am 06:35 Sunny 49 9.2 44 6.7 85 85 SSE 3 6 29.97 1015 10 16.0934 0 0
6:55 am 06:55 Sunny 53 11.6 47 8.5 81 81 Calm 29.94 1014 10 16.0934 0 0
7:15 am 07:15 Sunny 54 12.3 48 8.9 80 80 ESE 5 7 29.97 1015 10 16.0934 0 0
7:35 am 07:35 Sunny 56 13.1 48 9.1 77 77 E 5 7 29.94 1014 10 16.0934 0 0
7:55 am 07:55 Sunny 55 13 49 9.5 79 79 E 3 6 29.94 1014 10 16.0934 0 0
8:15 am 08:15 Sunny 57 13.8 49 9.5 75 75 ESE 6 9 29.94 1014 10 16.0934 0 0
8:35 am 08:35 Sunny 59 15.1 50 9.8 71 71 E 8 13 29.94 1014 10 16.0934 0 0
8:55 am 08:55 Sunny 61 16 49 9.7 66 66 E 13 20 29.94 1014 10 16.0934 0 0
9:15 am 09:15 Sunny 64 17.6 50 10.2 62 62 ESE 9 15 29.91 1013 10 16.0934 0 0
9:35 am 09:35 Sunny 65 18.5 50 10.2 59 59 ESE 14 22 29.91 1013 10 16.0934 0 0
9:55 am 09:55 Sunny 67 19.4 51 10.5 57 57 ESE 14 22 29.85 1011 10 16.0934 0 0
10:15 am 10:15 Sunny 69 20.3 51 10.5 53 53 ESE 13 20 29.88 1012 10 16.0934 0 0
10:35 am 10:35 Sunny 71 21.7 51 10.4 49 49 ESE 14 22 29.85 1011 10 16.0934 0 0
10:55 am 10:55 Sunny 72 22.1 51 10.3 47 47 SE 14 22 29.85 1011 10 16.0934 0 0
11:15 am 11:15 Sunny 73 22.7 51 10.6 46 46 ESE 15 24 29.85 1011 10 16.0934 0 0
11:35 am 11:35 Sunny 74 23.6 52 11.3 46 46 SE 14 22 29.83 1010 10 16.0934 0 0
11:55 am 11:55 Sunny 76 24.2 53 11.4 45 45 ESE 14 22 29.8 1009 10 16.0934 0 0
12:15 pm 12:15 Sunny 77 25 52 10.9 41 41 ESE 13 20 29.8 1009 10 16.0934 0 0
12:35 pm 12:35 Sunny 78 25.6 52 11.1 40 40 SE 14 22 29.8 1009 10 16.0934 0 0
12:55 pm 12:55 Sunny 80 26.7 53 11.5 39 39 ESE 13 20 29.77 1008 10 16.0934 0 0
1:15 pm 13:15 Sunny 81 27 53 11.8 39 39 SE 15 24 29.74 1007 10 16.0934 0 0
1:35 pm 13:35 Sunny 81 27.4 53 11.9 38 38 SSE 13 20 29.74 1007 10 16.0934 0 0
1:55 pm 13:55 Sunny 82 27.7 54 12 38 38 SE 16 26 29.74 1007 10 16.0934 0 0
2:15 pm 14:15 Partly Cloudy 82 28 55 12.8 39 39 SSE 16 26 29.74 1007 10 16.0934 0 0
2:35 pm 14:35 Partly Cloudy 83 28.5 55 12.8 38 38 SSE 16 26 29.71 1006 10 16.0934 0 0
2:55 pm 14:55 Sunny 84 28.7 55 13 38 38 SE 13 20 29.65 1004 10 16.0934 0 0
3:15 pm 15:15 Sunny 85 29.4 55 12.7 36 36 SE 15 24 29.65 1004 10 16.0934 0 0
3:35 pm 15:35 Sunny 85 29.5 55 12.6 35 35 SE 13 20 29.65 1004 10 16.0934 0 0
3:55 pm 15:55 Sunny 85 29.7 54 12.4 34 34 SSE 14 22 29.62 1003 10 16.0934 0 0
4:15 pm 16:15 Sunny 85 29.7 54 12 34 34 SSE 17 28 29.62 1003 10 16.0934 0 0
4:35 pm 16:35 Sunny 85 29.7 54 12.2 34 34 SSE 22 35 29.59 1002 10 16.0934 0 0
4:55 pm 16:55 Sunny 86 29.8 54 12.2 34 34 SSE 16 26 29.59 1002 10 16.0934 0 0
5:15 pm 17:15 Sunny 86 29.9 55 12.5 34 34 SE 15 24 29.59 1002 10 16.0934 0 0
5:35 pm 17:35 Sunny 85 29.7 55 12.6 35 35 SSE 18 30 29.59 1002 10 16.0934 0 0
5:55 pm 17:55 Sunny 85 29.5 55 12.9 36 36 SE 17 28 29.56 1001 10 16.0934 0 0
6:15 pm 18:15 Sunny 85 29.5 55 12.9 36 36 SE 20 31 29.56 1001 10 16.0934 0 0
6:35 pm 18:35 Sunny 85 29.4 55 12.5 35 35 SE 16 26 29.56 1001 10 16.0934 0 0
6:55 pm 18:55 Sunny 84 29.1 54 12.4 36 36 ESE 21 33 29.53 1000 10 16.0934 0 0
7:15 pm 19:15 Sunny 83 28.6 54 12.4 37 37 SE 17 28 29.53 1000 10 16.0934 0 0
7:35 pm 19:35 Sunny 82 27.8 55 12.5 39 39 SE 21 33 29.53 1000 10 16.0934 0 0
7:55 pm 19:55 Mostly Cloudy 81 27.4 55 12.7 40 40 SE 18 30 29.56 1001 10 16.0934 0 0
8:15 pm 20:15 Cloudy 81 27.1 55 13 42 42 ESE 15 24 29.56 1001 10 16.0934 0 0
8:35 pm 20:35 Mostly Cloudy 80 26.6 55 13 43 43 ESE 15 24 29.56 1001 10 16.0934 0 0
8:55 pm 20:55 Mostly Cloudy 79 26.2 56 13.2 45 45 SE 18 30 29.56 1001 10 16.0934 0 0
9:15 pm 21:15 Partly Cloudy 79 26 56 13.5 46 46 SE 17 28 29.56 1001 10 16.0934 0 0
9:35 pm 21:35 Clear 78 25.5 56 13.6 48 48 ESE 13 20 29.56 1001 10 16.0934 0 0
9:55 pm 21:55 Clear 77 25.1 56 13.6 49 49 ESE 13 20 29.56 1001 10 16.0934 0 0
10:15 pm 22:15 Mostly Cloudy 77 25 57 14 51 51 ESE 14 22 29.56 1001 10 16.0934 0 0
10:35 pm 22:35 Partly Cloudy with Nearby Thunderstorms 76 24.6 57 14 52 52 SE 14 22 29.56 1001 10 16.0934 0 0
10:55 pm 22:55 Partly Cloudy with Thunderstorms 76 24.3 58 14.4 54 54 E 7 11 29.59 1002 10 16.0934 0 0
11:15 pm 23:15 Cloudy with Nearby Thunderstorms 60 15.6 48 8.8 64 64 NNE 41 67 29.71 1006 1.5 2.41401 0 0
11:35 pm 23:35 Cloudy with Heavy Thunderstorms 53 11.7 49 9.7 88 88 NNE 41 67 29.83 1010 1.75 2.816345 0.11 2.794
11:55 pm 23:55 Cloudy 53 11.5 51 10.4 93 93 NE 39 63 29.77 1008 4 6.43736 0.24 6.096

Powered by AerisWeather